Covington, KY

3:24 PM EST on December 05, 2019 (GMT -0500)
Cincinnati-Northern KY International

Weather History for KCVG - October, 2019

Change the Weather History Date:

Sunday, October 13, 2019

  Actual Average Record
Temperature  
Mean Temperature 51 °F 57 °F  
Max Temperature 68 °F 67 °F 88 °F (1928)
Min Temperature 34 °F 46 °F 25 °F (1988)
Degree Days  
Heating Degree Days 14 9  
Month to date heating degree days 52 95  
Since 1 July heating degree days 52 153  
Cooling Degree Days 0 1  
Month to date cooling degree days 54 15  
Year to date cooling degree days 1496 1120  
Growing Degree Days 1 (Base 50)    
Moisture  
Dew Point 33 °F    
Average Humidity 55    
Maximum Humidity 82    
Minimum Humidity 24    
Precipitation  
Precipitation 0.00 in 0.11 in 1.44 in (1983)
Month to date precipitation 0.68 1.37  
Year to date precipitation 43.10 33.79  
Snow  
Snow 0.00 in 0.00 in - ()
Month to date snowfall 0.0 0.1  
Since 1 July snowfall 0.0 0.1  
Since 1 September snowfall 0.0 0.1  
Snow Depth 0.00 in    
Sea Level Pressure  
Sea Level Pressure 29.99 in    
Wind  
Wind Speed 7 mph ()    
Max Wind Speed 17 mph    
Max Gust Speed 22 mph    
Visibility 10.0 miles    
Events      
T = Trace of Precipitation, MM = Missing Value Source: Averaged Metar Reports

Daily Weather History Graph

Daily Weather History Graph

Search for Another Location

Airport or City:

Astronomy

Oct. 13, 2019 Rise Set
Actual Time 7:45 AM EDT 7:03 PM EDT
Civil Twilight 7:19 AM EDT 7:30 PM EDT
Nautical Twilight 6:48 AM EDT 8:00 PM EDT
Astronomical Twilight 6:17 AM EDT 8:31 PM EDT
Moon 7:24 PM EDT (10/13) 7:19 AM EDT (10/13)
Length of Visible Light 12h 10m
Length of Day
11h 17m
Full, 100% of the Moon is Illuminated
Oct 13
Full
Oct 13
Full
Oct 21
Last Quarter
Oct 27
New
Nov 4
First Quarter

Hourly Weather History & Observations

Time (EDT) Temp. Windchill Dew Point Humidity Pressure Visibility Wind Dir Wind Speed Gust Speed Precip Events Conditions
12:52 AM 39.9 °F 35.8 °F 34.0 °F 79% 30.06 in 10.0 mi South 5.8 mph - N/A   Clear
1:52 AM 39.0 °F 34.0 °F 32.0 °F 76% 30.05 in 10.0 mi South 6.9 mph - N/A   Partly Cloudy
2:52 AM 37.9 °F 32.1 °F 32.0 °F 79% 30.04 in 10.0 mi South 8.1 mph - N/A   Partly Cloudy
3:52 AM 39.9 °F 34.5 °F 30.9 °F 70% 30.04 in 10.0 mi SSW 8.1 mph - N/A   Partly Cloudy
4:52 AM 39.0 °F - 32.0 °F 76% 30.04 in 10.0 mi Calm Calm - N/A   Clear
5:52 AM 36.0 °F 30.3 °F 30.9 °F 82% 30.04 in 10.0 mi South 6.9 mph - N/A   Partly Cloudy
6:52 AM 35.1 °F 29.3 °F 30.0 °F 82% 30.04 in 10.0 mi South 6.9 mph - N/A   Scattered Clouds
7:52 AM 37.9 °F - 32.0 °F 79% 30.04 in 10.0 mi Calm Calm - N/A   Partly Cloudy
8:52 AM 39.9 °F 34.5 °F 33.1 °F 77% 30.04 in 10.0 mi South 8.1 mph - N/A   Scattered Clouds
10:52 AM 53.1 °F - 35.1 °F 50% 30.04 in 10.0 mi SW 10.4 mph - N/A   Scattered Clouds
11:52 AM 55.9 °F - 35.1 °F 45% 30.02 in 10.0 mi SW 10.4 mph - N/A   Partly Cloudy
12:52 PM 60.1 °F - 33.1 °F 36% 29.99 in 10.0 mi SW 12.7 mph - N/A   Partly Cloudy
1:52 PM 64.0 °F - 35.1 °F 34% 29.96 in 10.0 mi SSW 10.4 mph - N/A   Partly Cloudy
2:52 PM 66.0 °F - 34.0 °F 30% 29.93 in 10.0 mi SW 10.4 mph - N/A   Clear
3:52 PM 68.0 °F - 32.0 °F 26% 29.92 in 10.0 mi SSW 13.8 mph - N/A   Clear
4:52 PM 68.0 °F - 30.9 °F 25% 29.91 in 10.0 mi SW 8.1 mph - N/A   Clear
5:52 PM 66.9 °F - 32.0 °F 27% 29.92 in 10.0 mi SSW 12.7 mph - N/A   Clear
6:52 PM 63.0 °F - 32.0 °F 31% 29.92 in 10.0 mi SSW 8.1 mph - N/A   Clear
7:52 PM 57.9 °F - 33.1 °F 39% 29.94 in 10.0 mi SSW 5.8 mph - N/A   Clear
8:52 PM 55.9 °F - 34.0 °F 44% 29.95 in 10.0 mi SSW 6.9 mph - N/A   Clear
9:52 PM 53.1 °F - 37.0 °F 55% 29.95 in 10.0 mi South 9.2 mph - N/A   Clear
10:52 PM 53.1 °F - 37.0 °F 55% 29.96 in 10.0 mi SSW 5.8 mph - N/A   Clear
11:52 PM 52.0 °F - 37.0 °F 57% 29.96 in 10.0 mi SSW 5.8 mph - N/A   Clear